This demonstration page uses our WeatherBlox Daily Observations layout. Learn more.

Left ArrowRight Arrow

Hourly Observations for June 17, 2021

Temp ( °F °C ) Dew Point ( °F °C ) Humidity (%) Winds ( mph kmh ) Pressure ( in mb ) Visibility ( mi km ) Precip ( " mm )
12:51 am 00:51 Clear 90 32.2 42 5.6 19 19 ENE 9 15 29.73 1007 10 16 N/A
1:51 am 01:51 Clear 90 32.2 38 3.3 16 16 E 14 22 29.73 1007 10 16 N/A
2:51 am 02:51 Clear 89 31.7 35 1.7 15 15 E 16 26 29.75 1007 10 16 N/A
3:51 am 03:51 Clear 86 30 33 0.6 15 15 E 14 22 29.77 1008 10 16 N/A
4:51 am 04:51 Clear 86 30 34 1.1 15 15 E 15 24 29.77 1008 10 16 N/A
5:51 am 05:51 Sunny 83 28.3 35 1.7 18 18 SE 12 19 29.81 1010 10 16 N/A
6:51 am 06:51 Sunny 88 31.1 38 3.3 17 17 ESE 9 15 29.82 1010 10 16 N/A
7:51 am 07:51 Sunny 91 32.8 42 5.6 18 18 ESE 14 22 29.83 1010 10 16 N/A
8:51 am 08:51 Mostly Sunny 94 34.4 41 5 16 16 ESE 14 22 29.82 1010 10 16 N/A
9:51 am 09:51 Mostly Sunny 96 35.6 41 5 15 15 S 12 19 29.81 1010 10 16 N/A
10:51 am 10:51 Mostly Sunny 98 36.7 40 4.4 13 13 SSE 8 13 29.80 1009 10 16 N/A
11:51 am 11:51 Sunny 101 38.3 41 5 13 13 SE 8 13 29.76 1008 10 16 N/A
12:51 pm 12:51 Sunny 103 39.4 38 3.3 11 11 SSE 13 20 29.72 1007 10 16 N/A
1:51 pm 13:51 Mostly Cloudy 104 40 36 2.2 9 9 SSE 12 19 29.70 1006 10 16 N/A
2:51 pm 14:51 Cloudy 105 40.6 36 2.2 9 9 S 8 13 29.66 1004 10 16 N/A
3:51 pm 15:51 Mostly Cloudy 105 40.6 35 1.7 9 9 SE 8 13 29.65 1004 10 16 N/A
4:51 pm 16:51 Mostly Cloudy 105 40.6 37 2.8 10 10 SSE 13 20 29.62 1003 10 16 N/A
5:51 pm 17:51 Mostly Cloudy 104 40 37 2.8 10 10 SE 14 22 29.62 1003 10 16 N/A
6:51 pm 18:51 Mostly Cloudy 101 38.3 36 2.2 10 10 SSE 12 19 29.63 1003 10 16 N/A
7:51 pm 19:51 Mostly Cloudy 97 36.1 35 1.7 11 11 SE 8 13 29.64 1004 10 16 N/A
8:51 pm 20:51 Partly Cloudy 93 33.9 32 undefined 11 11 S 6 9 29.67 1005 10 16 N/A
9:51 pm 21:51 Mostly Clear 89 31.7 31 -0.6 12 12 ESE 5 7 29.70 1006 10 16 N/A
10:51 pm 22:51 Clear 87 30.6 26 -3.3 11 11 ESE 8 13 29.70 1006 10 16 N/A
11:51 pm 23:51 Clear 85 29.4 26 -3.3 12 12 SE 9 15 29.70 1006 10 16 N/A

Powered by AerisWeather